Flag for U.S.A. Weather past 2 weeks in Tallahassee, Florida, U.S.A.

Now
69 °F

Passing clouds.


Feels Like: 69 °F
Forecast: 71 / 93 °F
Wind: No wind

Location: Tallahassee Regional Airport

Current Time: Aug 1, 2014 at 7:13:43 AM

Latest Report: Aug 1, 2014 at 6:53 AM


Visibility: 10 mi

Pressure: 29.96 "Hg

Humidity: 87%

Dew point: 65 °F

Location of TallahasseeLocation

Historic Weather in Tallahassee — Graph

°F

Tallahassee temperature yesterday

Maximum temperature yesterday: 94 °F (at 4:53 PM)
Minimum temperature yesterday: 65 °F (at 6:53 AM)
Average temperature yesterday: 82 °F

Past Weeks' High & Low Weather Summary

 TemperatureHumidityPressure
High100 °F (Jul 28, 4:53 PM)99% (Jul 28, 11:53 PM)30.10 "Hg (Jul 28, 11:53 PM)
Low65 °F (Jul 31, 6:53 AM)29% (Jul 17, 3:53 PM)29.91 "Hg (Jul 28, 4:53 PM)
Average81 °F72%30.02 "Hg
* Reported Jul 17 5:53 AM — Aug 1 5:53 AM, Tallahassee, Weather by CustomWeather, © 2014

Note: Actual official high and low records may vary slightly from our data, if they occured in-between our weather recording intervals... More about our weather records

Advertising

Tallahassee weather history for previous 24 hours

 ConditionsComfort  
Time TempWeatherWind HumidityBarometerVisibility
5:53 AM
Aug 1
71 °FPassing clouds.No wind81%29.95 "Hg10 mi
4:53 AM70 °FPassing clouds.3 mph84%29.94 "Hg10 mi
3:53 AM71 °FPassing clouds.No wind81%29.94 "Hg10 mi
2:53 AM71 °FPassing clouds.No wind81%29.95 "Hg10 mi
1:53 AM72 °FClear.No wind78%29.96 "Hg10 mi
12:53 AM73 °FClear.No wind76%29.98 "Hg10 mi
11:53 PM
Jul 31
74 °FClear.No wind76%29.99 "Hg10 mi
10:53 PM76 °FClear.No wind72%29.98 "Hg10 mi
9:53 PM80 °FClear.No wind62%29.98 "Hg10 mi
8:53 PM82 °FScattered clouds.5 mph58%29.97 "Hg10 mi
7:53 PM86 °FBroken clouds.7 mph49%29.97 "Hg10 mi
6:53 PM91 °FScattered clouds.6 mph38%29.95 "Hg10 mi
5:53 PM92 °FPartly sunny.3 mph33%29.95 "Hg10 mi
4:53 PM94 °FBroken clouds.3 mph32%29.96 "Hg10 mi
3:53 PM91 °FBroken clouds.8 mph38%29.97 "Hg10 mi
2:53 PM91 °FBroken clouds.5 mph35%29.98 "Hg10 mi
1:53 PM90 °FBroken clouds.6 mph41%30.00 "Hg10 mi
12:53 PM89 °FBroken clouds.5 mph40%30.01 "Hg10 mi
11:53 AM89 °FPartly sunny.5 mph40%30.02 "Hg10 mi
10:53 AM86 °FPartly sunny.No wind48%30.01 "Hg10 mi
9:53 AM80 °FPartly sunny.No wind62%30.01 "Hg10 mi
8:53 AM75 °FScattered clouds.No wind71%30.01 "Hg10 mi
7:53 AM68 °FPassing clouds.7 mph82%30.00 "Hg10 mi
Weather by CustomWeather, © 2014

See weather overviewHow to use our weather pages